Weather History for Denali Park, AK

Change the Weather History Date:

Friday, December 7, 2012

  Actual Average Record
Temperature  
Mean Temperature -30 °F -  
Max Temperature -27 °F 9 °F 41 °F (2005)
Min Temperature -34 °F -6 °F -47 °F (1975)
Degree Days  
Heating Degree Days 96    
Moisture  
Dew Point -37 °F    
Average Humidity 74    
Maximum Humidity 83    
Minimum Humidity 68    
Precipitation  
Precipitation 0.00 in - - ()
Sea Level Pressure  
Sea Level Pressure 29.89 in    
Wind  
Wind Speed 0 mph (SSW)    
Max Wind Speed 4 mph    
Max Gust Speed -    
Visibility 10 miles    
Events      
Averages and records for this station are not official NWS values.
T = Trace of Precipitation, MM = Missing Value Source: NWS Daily Summary

Daily Weather History Graph

Daily Weather History Graph

Search for Another Location

Airport:

Trip Planner

Search our weather history database for the weather conditions in past years. The results will help you decide how hot, cold, wet, or windy it might be!

Date:

Astronomy

Dec. 07, 2012 Rise Set
Actual Time 10:24 AM AKST 3:09 PM AKST
Civil Twilight 9:12 AM AKST 4:22 PM AKST
Nautical Twilight 8:06 AM AKST 5:28 PM AKST
Astronomical Twilight 7:08 AM AKST 6:26 PM AKST
Moon 1:47 AM AKST (12/7) 1:08 PM AKST (12/7)
Length of Visible Light 7h 09m
Length of Day
4h 45m
Last Quarter, 37% of the Moon is Illuminated
Dec 7
Last Quarter
Dec 12
New
Dec 19
First Quarter
Dec 28
Full
Jan 4
Last Quarter

Hourly Weather History & Observations

Time (AKST) Temp. Windchill Dew Point Humidity Pressure Visibility Wind Dir Wind Speed Gust Speed Precip Events Conditions
12:16 AM -34.6 °F - -40.0 °F 75% 29.88 in 10.0 mi Calm Calm - N/A   Clear
12:36 AM -34.6 °F - -40.0 °F 75% 29.88 in 10.0 mi Calm Calm - N/A   Clear
12:56 AM -34.6 °F - -40.0 °F 75% 29.88 in 10.0 mi Calm Calm - N/A   Clear
1:16 AM -34.6 °F - -40.0 °F 75% 29.89 in 10.0 mi Calm Calm - N/A   Clear
1:36 AM -34.6 °F - -40.0 °F 75% 29.89 in 10.0 mi Calm Calm - N/A   Clear
1:56 AM -34.6 °F - -41.8 °F 68% 29.89 in 10.0 mi Calm Calm - N/A   Clear
2:16 AM -34.6 °F - -40.0 °F 75% 29.89 in 10.0 mi Calm Calm - N/A   Clear
2:36 AM -34.6 °F - -40.0 °F 75% 29.89 in 10.0 mi Calm Calm - N/A   Clear
2:56 AM -34.6 °F - -40.0 °F 75% 29.89 in 10.0 mi Calm Calm - N/A   Clear
3:16 AM -34.6 °F - -40.0 °F 75% 29.89 in 10.0 mi Calm Calm - N/A   Clear
3:36 AM -34.6 °F - -40.0 °F 75% 29.89 in 10.0 mi Calm Calm - N/A   Clear
3:56 AM -34.6 °F - -40.0 °F 75% 29.89 in 10.0 mi Calm Calm - N/A   Clear
4:16 AM -32.8 °F - -38.2 °F 75% 29.89 in 10.0 mi Calm Calm - N/A   Clear
4:36 AM -34.6 °F - -40.0 °F 75% 29.89 in 10.0 mi Calm Calm - N/A   Clear
4:56 AM -34.6 °F - -40.0 °F 75% 29.89 in 10.0 mi Calm Calm - N/A   Clear
5:16 AM -34.6 °F - -38.2 °F 82% 29.89 in 10.0 mi Calm Calm - N/A   Clear
5:36 AM -32.8 °F - -40.0 °F 68% 29.89 in 10.0 mi Calm Calm - N/A   Clear
5:56 AM -34.6 °F - -40.0 °F 75% 29.89 in 10.0 mi Calm Calm - N/A   Clear
6:16 AM -34.6 °F - -40.0 °F 75% 29.89 in 10.0 mi Calm Calm - N/A   Clear
6:36 AM -34.6 °F - -40.0 °F 75% 29.89 in 10.0 mi Calm Calm - N/A   Clear
6:56 AM -34.6 °F - -41.8 °F 68% 29.89 in 10.0 mi Calm Calm - N/A   Clear
7:16 AM -34.6 °F - -40.0 °F 75% 29.89 in 10.0 mi Calm Calm - N/A   Clear
7:36 AM -34.6 °F - -40.0 °F 75% 29.90 in 10.0 mi Calm Calm - N/A   Clear
7:56 AM -34.6 °F - -40.0 °F 75% 29.90 in 10.0 mi Calm Calm - N/A   Clear
8:16 AM -34.6 °F - -40.0 °F 75% 29.90 in 10.0 mi Calm Calm - N/A   Clear
8:36 AM -34.6 °F - -40.0 °F 75% 29.90 in 10.0 mi Calm Calm - N/A   Clear
8:56 AM -34.6 °F - -40.0 °F 75% 29.90 in 10.0 mi Calm Calm - N/A   Clear
9:16 AM -34.6 °F - -40.0 °F 75% 29.90 in 10.0 mi Calm Calm - N/A   Clear
9:36 AM -34.6 °F - -40.0 °F 75% 29.90 in 10.0 mi Calm Calm - N/A   Clear
9:56 AM -34.6 °F - -40.0 °F 75% 29.91 in 10.0 mi Calm Calm - N/A   Clear
10:16 AM -32.8 °F - -38.2 °F 75% 29.90 in 10.0 mi Calm Calm - N/A   Clear
10:36 AM -32.8 °F - -38.2 °F 75% 29.91 in 10.0 mi Calm Calm - N/A   Clear
10:56 AM -32.8 °F - -38.2 °F 75% 29.91 in 10.0 mi Calm Calm - N/A   Clear
11:16 AM -32.8 °F - -38.2 °F 75% 29.91 in 10.0 mi Calm Calm - N/A   Clear
11:36 AM -32.8 °F - -36.4 °F 83% 29.91 in 10.0 mi Calm Calm - N/A   Clear
11:56 AM -29.2 °F - -34.6 °F 75% 29.91 in 10.0 mi Calm Calm - N/A   Clear
12:16 PM -27.4 °F - -32.8 °F 75% 29.91 in 10.0 mi Calm Calm - N/A   Clear
12:36 PM -27.4 °F - -32.8 °F 75% 29.91 in 10.0 mi Calm Calm - N/A   Clear
12:56 PM -27.4 °F - -34.6 °F 69% 29.91 in 10.0 mi Calm Calm - N/A   Clear
1:16 PM -29.2 °F - -34.6 °F 75% 29.90 in 10.0 mi Calm Calm - N/A   Clear
1:36 PM -29.2 °F - -34.6 °F 75% 29.90 in 10.0 mi Calm Calm - N/A   Clear
1:56 PM -29.2 °F - -34.6 °F 75% 29.90 in 10.0 mi Calm Calm - N/A   Clear
2:16 PM -29.2 °F - -34.6 °F 75% 29.90 in 10.0 mi Calm Calm - N/A   Clear
2:36 PM -29.2 °F - -34.6 °F 75% 29.90 in 10.0 mi Calm Calm - N/A   Clear
2:56 PM -29.2 °F - -34.6 °F 75% 29.90 in 10.0 mi Calm Calm - N/A   Clear
3:16 PM -29.2 °F - -34.6 °F 75% 29.89 in 10.0 mi Calm Calm - N/A   Clear
3:36 PM -29.2 °F - -34.6 °F 75% 29.89 in 10.0 mi Calm Calm - N/A   Clear
3:56 PM -29.2 °F - -34.6 °F 75% 29.89 in 10.0 mi Calm Calm - N/A   Clear
4:16 PM -27.4 °F - -32.8 °F 75% 29.89 in 10.0 mi Calm Calm - N/A   Clear
4:36 PM -27.4 °F - -34.6 °F 69% 29.89 in 10.0 mi Calm Calm - N/A   Clear
4:56 PM -29.2 °F - -34.6 °F 75% 29.89 in 10.0 mi Calm Calm - N/A   Clear
5:16 PM -29.2 °F - -34.6 °F 75% 29.89 in 10.0 mi Calm Calm - N/A   Clear
5:36 PM -29.2 °F - -34.6 °F 75% 29.88 in 10.0 mi Calm Calm - N/A   Clear
5:56 PM -29.2 °F - -34.6 °F 75% 29.88 in 10.0 mi Calm Calm - N/A   Clear
6:16 PM -29.2 °F - -34.6 °F 75% 29.89 in 10.0 mi Calm Calm - N/A   Clear
6:36 PM -29.2 °F - -34.6 °F 75% 29.89 in 10.0 mi Calm Calm - N/A   Clear
6:56 PM -29.2 °F - -34.6 °F 75% 29.89 in 10.0 mi Calm Calm - N/A   Clear
7:16 PM -29.2 °F - -34.6 °F 75% 29.89 in 10.0 mi Calm Calm - N/A   Clear
7:36 PM -29.2 °F - -34.6 °F 75% 29.89 in 10.0 mi Calm Calm - N/A   Clear
7:56 PM -29.2 °F - -34.6 °F 75% 29.89 in 10.0 mi Calm Calm - N/A   Clear
8:16 PM -27.4 °F - -32.8 °F 75% 29.89 in 10.0 mi Calm Calm - N/A   Clear
8:36 PM -27.4 °F - -32.8 °F 75% 29.89 in 10.0 mi Calm Calm - N/A   Clear
8:56 PM -29.2 °F - -34.6 °F 75% 29.89 in 10.0 mi Calm Calm - N/A   Clear
9:16 PM -27.4 °F - -34.6 °F 69% 29.88 in 10.0 mi Calm Calm - N/A   Clear
9:36 PM -27.4 °F - -32.8 °F 75% 29.89 in 10.0 mi Calm Calm - N/A   Clear
9:56 PM -27.4 °F - -32.8 °F 75% 29.89 in 10.0 mi Calm Calm - N/A   Clear
10:16 PM -27.4 °F -39.2 °F -34.6 °F 69% 29.89 in 10.0 mi South 3.5 mph - N/A   Clear
10:36 PM -27.4 °F - -32.8 °F 75% 29.89 in 10.0 mi Calm Calm - N/A   Clear
10:56 PM -27.4 °F - -34.6 °F 69% 29.89 in 10.0 mi Calm Calm - N/A   Clear
11:16 PM -27.4 °F -39.2 °F -32.8 °F 75% 29.90 in 10.0 mi SSW 3.5 mph - N/A   Clear
11:36 PM -27.4 °F - -32.8 °F 75% 29.90 in 10.0 mi Calm Calm - N/A   Clear
11:56 PM -27.4 °F - -32.8 °F 75% 29.90 in 10.0 mi Calm Calm - N/A   Clear